When you browse on this site, cookies collect data to enhance your experience and personalize the content and advertising you see.
Visit our Privacy Policy to learn more. By continuing to use the site, you agree to this use of cookies and data.

Hourly Weather Titovka

Today, 10 July, Friday

Time Temperature Precipitation Wind Pressure Humidity
00:00 +12°C° 0 mm 1 mps 751 mmHg 85%
01:00 +12°C° 0 mm 1 mps 751 mmHg 86%
02:00 +12°C° 0 mm 1 mps 751 mmHg 87%
03:00 +12°C° 0 mm 2 mps 751 mmHg 88%
04:00 +12°C° 0 mm 2 mps 751 mmHg 88%
05:00 +12°C° 0 mm 2 mps 751 mmHg 88%
06:00 +13°C° 0 mm 3 mps 751 mmHg 83%
07:00 +15°C° 0 mm 4 mps 751 mmHg 78%
08:00 +17°C° 0 mm 5 mps 751 mmHg 74%
09:00 +19°C° 0 mm 5 mps 751 mmHg 74%
10:00 +19°C° 0 mm 5 mps 751 mmHg 74%
11:00 +19°C° 0 mm 5 mps 750 mmHg 74%
12:00 +21°C° 0 mm 5 mps 750 mmHg 70%
13:00 +22°C° 0 mm 5 mps 749 mmHg 66%
14:00 +24°C° 0 mm 6 mps 749 mmHg 63%
15:00 +25°C° 0.2 mm 5 mps 749 mmHg 67%
16:00 +25°C° 0.2 mm 5 mps 749 mmHg 72%
17:00 +25°C° 0.2 mm 5 mps 749 mmHg 76%
18:00 +23°C° 0.6 mm 4 mps 749 mmHg 80%
19:00 +22°C° 0.6 mm 4 mps 749 mmHg 85%
20:00 +21°C° 0.6 mm 4 mps 749 mmHg 89%
21:00 +20°C° 0.3 mm 4 mps 749 mmHg 91%
22:00 +20°C° 0.3 mm 4 mps 749 mmHg 92%
23:00 +19°C° 0.3 mm 3 mps 749 mmHg 94%

Tomorrow, 11 July, Saturday

Time Temperature Precipitation Wind Pressure Humidity
00:00 +19°C° 0.1 mm 4 mps 749 mmHg 95%
01:00 +19°C° 0.1 mm 4 mps 749 mmHg 95%
02:00 +19°C° 0.1 mm 5 mps 749 mmHg 96%
03:00 +19°C° 0 mm 5 mps 749 mmHg 95%
04:00 +19°C° 0 mm 5 mps 749 mmHg 94%
05:00 +19°C° 0 mm 5 mps 748 mmHg 94%
06:00 +21°C° 0 mm 5 mps 749 mmHg 90%
07:00 +22°C° 0 mm 5 mps 749 mmHg 86%
08:00 +23°C° 0 mm 5 mps 749 mmHg 82%
09:00 +25°C° 0 mm 5 mps 749 mmHg 78%
10:00 +26°C° 0 mm 4 mps 750 mmHg 73%
11:00 +28°C° 0 mm 4 mps 750 mmHg 68%
12:00 +28°C° 1 mm 4 mps 750 mmHg 70%
13:00 +28°C° 1 mm 4 mps 750 mmHg 72%
14:00 +28°C° 1 mm 4 mps 750 mmHg 73%
15:00 +27°C° 1.1 mm 4 mps 750 mmHg 76%
16:00 +27°C° 1.1 mm 3 mps 750 mmHg 78%
17:00 +26°C° 1.1 mm 3 mps 750 mmHg 80%
18:00 +24°C° 0.6 mm 3 mps 750 mmHg 83%
19:00 +21°C° 0.6 mm 3 mps 750 mmHg 87%
20:00 +20°C° 0.6 mm 4 mps 750 mmHg 90%
21:00 +19°C° 1.1 mm 3 mps 750 mmHg 91%
22:00 +18°C° 1.1 mm 3 mps 750 mmHg 92%
23:00 +17°C° 1.1 mm 3 mps 751 mmHg 93%

Day after tomorrow, 12 July, Sunday

Time Temperature Precipitation Wind Pressure Humidity
00:00 +16°C° 0.4 mm 3 mps 751 mmHg 94%
01:00 +15°C° 0.4 mm 4 mps 751 mmHg 94%
02:00 +14°C° 0.4 mm 4 mps 750 mmHg 94%
03:00 +14°C° 0.3 mm 4 mps 750 mmHg 94%
04:00 +13°C° 0.3 mm 4 mps 750 mmHg 94%
05:00 +13°C° 0.3 mm 4 mps 750 mmHg 94%
06:00 +13°C° 0.1 mm 4 mps 751 mmHg 93%
07:00 +13°C° 0.1 mm 4 mps 751 mmHg 93%
08:00 +13°C° 0.1 mm 4 mps 751 mmHg 92%
09:00 +13°C° 0.1 mm 4 mps 751 mmHg 92%
10:00 +13°C° 0.1 mm 4 mps 751 mmHg 91%
11:00 +14°C° 0.1 mm 4 mps 751 mmHg 91%
12:00 +14°C° 0 mm 5 mps 751 mmHg 90%
13:00 +14°C° 0 mm 5 mps 751 mmHg 88%
14:00 +14°C° 0 mm 5 mps 751 mmHg 87%
15:00 +13°C° 0.2 mm 5 mps 751 mmHg 88%
16:00 +13°C° 0.2 mm 6 mps 751 mmHg 90%
17:00 +11°C° 0.2 mm 6 mps 751 mmHg 91%
18:00 +11°C° 0.5 mm 6 mps 751 mmHg 92%
19:00 +10°C° 0.5 mm 5 mps 751 mmHg 93%
20:00 +10°C° 0.5 mm 5 mps 751 mmHg 94%
21:00 +10°C° 0.3 mm 5 mps 751 mmHg 94%
22:00 +10°C° 0.3 mm 4 mps 750 mmHg 93%
23:00 +10°C° 0.3 mm 4 mps 750 mmHg 93%

13 July, Monday

Time Temperature Precipitation Wind Pressure Humidity
00:00 +10°C° 0.8 mm 3 mps 750 mmHg 93%
01:00 +10°C° 0.8 mm 3 mps 750 mmHg 93%
02:00 +10°C° 0.8 mm 3 mps 750 mmHg 94%
03:00 +10°C° 0.3 mm 3 mps 750 mmHg 94%
04:00 +10°C° 0.3 mm 3 mps 750 mmHg 95%
05:00 +10°C° 0.3 mm 3 mps 749 mmHg 95%
06:00 +11°C° 0 mm 3 mps 749 mmHg 93%
07:00 +12°C° 0 mm 4 mps 749 mmHg 91%
08:00 +13°C° 0 mm 5 mps 749 mmHg 89%
09:00 +14°C° 0 mm 5 mps 749 mmHg 82%
10:00 +16°C° 0 mm 5 mps 749 mmHg 76%
11:00 +17°C° 0 mm 5 mps 749 mmHg 69%
12:00 +19°C° 0.1 mm 5 mps 749 mmHg 67%
13:00 +19°C° 0.1 mm 5 mps 749 mmHg 65%
14:00 +20°C° 0.1 mm 4 mps 749 mmHg 63%
15:00 +20°C° 0.2 mm 4 mps 748 mmHg 66%
16:00 +19°C° 0.2 mm 4 mps 748 mmHg 69%
17:00 +19°C° 0.2 mm 4 mps 747 mmHg 72%
18:00 +18°C° 0.1 mm 4 mps 747 mmHg 76%
19:00 +17°C° 0.1 mm 3 mps 747 mmHg 80%
20:00 +14°C° 0.1 mm 3 mps 747 mmHg 84%
21:00 +13°C° 0 mm 3 mps 747 mmHg 85%
22:00 +13°C° 0 mm 3 mps 747 mmHg 86%
23:00 +12°C° 0 mm 3 mps 747 mmHg 87%

14 July, Tuesday

Time Temperature Precipitation Wind Pressure Humidity
00:00 +11°C° 0 mm 3 mps 747 mmHg 87%
01:00 +11°C° 0 mm 3 mps 747 mmHg 88%
02:00 +11°C° 0 mm 3 mps 747 mmHg 88%
03:00 +11°C° 0 mm 3 mps 747 mmHg 88%
04:00 +10°C° 0 mm 4 mps 747 mmHg 89%
05:00 +10°C° 0 mm 4 mps 747 mmHg 89%
06:00 +12°C° 0 mm 4 mps 747 mmHg 83%
07:00 +14°C° 0 mm 4 mps 747 mmHg 77%
08:00 +17°C° 0 mm 4 mps 748 mmHg 71%
09:00 +18°C° 0 mm 4 mps 748 mmHg 67%
10:00 +19°C° 0 mm 5 mps 748 mmHg 63%
11:00 +20°C° 0 mm 5 mps 748 mmHg 59%
12:00 +21°C° 0.2 mm 5 mps 747 mmHg 60%
13:00 +21°C° 0.2 mm 5 mps 747 mmHg 61%
14:00 +21°C° 0.2 mm 5 mps 747 mmHg 62%
15:00 +21°C° 0.3 mm 5 mps 747 mmHg 64%
16:00 +20°C° 0.3 mm 4 mps 747 mmHg 66%
17:00 +20°C° 0.3 mm 4 mps 747 mmHg 68%
18:00 +19°C° 0 mm 4 mps 747 mmHg 71%
19:00 +17°C° 0 mm 4 mps 747 mmHg 74%
20:00 +16°C° 0 mm 3 mps 748 mmHg 77%
21:00 +14°C° 0 mm 3 mps 748 mmHg 78%
22:00 +12°C° 0 mm 3 mps 748 mmHg 79%
23:00 +11°C° 0 mm 3 mps 748 mmHg 79%

15 July, Wednesday

Time Temperature Precipitation Wind Pressure Humidity
00:00 +11°C° 0 mm 3 mps 748 mmHg 80%
01:00 +10°C° 0 mm 3 mps 749 mmHg 81%
02:00 +10°C° 0 mm 3 mps 749 mmHg 81%
03:00 +10°C° 0 mm 3 mps 749 mmHg 82%
04:00 +10°C° 0 mm 3 mps 749 mmHg 83%
05:00 +10°C° 0 mm 3 mps 749 mmHg 84%
06:00 +12°C° 0 mm 3 mps 749 mmHg 79%
07:00 +14°C° 0 mm 3 mps 750 mmHg 74%
08:00 +17°C° 0 mm 3 mps 750 mmHg 69%
09:00 +18°C° 0 mm 3 mps 750 mmHg 64%
10:00 +20°C° 0 mm 3 mps 750 mmHg 59%
11:00 +21°C° 0 mm 3 mps 750 mmHg 54%
12:00 +21°C° 0 mm 3 mps 750 mmHg 54%
13:00 +22°C° 0 mm 3 mps 750 mmHg 54%
14:00 +22°C° 0 mm 3 mps 750 mmHg 54%
15:00 +22°C° 0 mm 3 mps 750 mmHg 55%
16:00 +22°C° 0 mm 3 mps 750 mmHg 57%
17:00 +22°C° 0 mm 3 mps 750 mmHg 59%
18:00 +20°C° 0 mm 2 mps 750 mmHg 65%
19:00 +19°C° 0 mm 2 mps 750 mmHg 71%
20:00 +18°C° 0 mm 1 mps 750 mmHg 77%
21:00 +16°C° 0 mm 1 mps 750 mmHg 79%
22:00 +15°C° 0 mm 1 mps 750 mmHg 81%
23:00 +14°C° 0 mm 1 mps 750 mmHg 83%
Show more